Weather History for EGPF - March, 2011

Change the Weather History Date:

Thursday, March 24, 2011

  Actual Average Record
Temperature  
Mean Temperature 46 °F -  
Max Temperature 59 °F 51 °F 59 °F (2005)
Min Temperature 33 °F 37 °F 23 °F (2014)
Degree Days  
Heating Degree Days 19    
Moisture  
Dew Point 40 °F    
Average Humidity 78    
Maximum Humidity 100    
Minimum Humidity 55    
Precipitation  
Precipitation 0.00 in - - ()
Sea Level Pressure  
Sea Level Pressure 30.54 in    
Wind  
Wind Speed 4 mph ()    
Max Wind Speed 12 mph    
Max Gust Speed -    
Visibility 5.1 miles    
Events Fog    
Averages and records for this station are not official NWS values.
T = Trace of Precipitation, MM = Missing Value Source: Averaged Metar Reports

Daily Weather History Graph

Daily Weather History Graph

Search for Another Location

Airport or City:

Trip Planner

Search our weather history database for the weather conditions in past years. The results will help you decide how hot, cold, wet, or windy it might be!

Date:

Astronomy

Mar. 24, 2011 Rise Set
Actual Time 6:10 AM GMT 6:38 PM GMT
Civil Twilight 5:33 AM GMT 7:16 PM GMT
Nautical Twilight 4:48 AM GMT 8:00 PM GMT
Astronomical Twilight 4:01 AM GMT 8:48 PM GMT
Moon 12:46 AM GMT (3/24) 7:48 AM GMT (3/24)
Length of Visible Light 13h 42m
Length of Day
12h 28m
Waning Gibbous, 71% of the Moon is Illuminated
Mar 24
Waning Gibbous
Mar 26
Last Quarter
Apr 3
New
Apr 11
First Quarter
Apr 18
Full

Hourly Weather History & Observations

Time (GMT) Temp. Windchill Dew Point Humidity Pressure Visibility Wind Dir Wind Speed Gust Speed Precip Events Conditions
12:20 AM 46.4 °F 45.2 °F 41.0 °F 81% 30.66 in 6.2 mi WSW 3.5 mph - N/A   Mostly Cloudy
12:50 AM 46.4 °F - 41.0 °F 81% 30.66 in 6.2 mi WSW 2.3 mph - N/A   Mostly Cloudy
1:20 AM 46.4 °F 45.2 °F 41.0 °F 81% 30.66 in 6.2 mi WSW 3.5 mph - N/A   Mostly Cloudy
1:50 AM 46.4 °F - 41.0 °F 81% 30.66 in 6.2 mi Calm Calm - N/A   Mostly Cloudy
2:20 AM 46.4 °F 44.3 °F 42.8 °F 87% 30.63 in 6.2 mi WSW 4.6 mph - N/A   Mostly Cloudy
2:50 AM 46.4 °F 45.2 °F 41.0 °F 81% 30.63 in 6.2 mi West 3.5 mph - N/A   Mostly Cloudy
3:20 AM 42.8 °F 41.1 °F 39.2 °F 87% 30.63 in 6.2 mi SW 3.5 mph - N/A   Scattered Clouds
3:50 AM 41.0 °F 39.0 °F 39.2 °F 93% 30.63 in 5.6 mi West 3.5 mph - N/A   Unknown
4:20 AM 39.2 °F - 39.2 °F 100% 30.63 in - Variable 2.3 mph - N/A   Haze
4:50 AM 39.2 °F 37.0 °F 37.4 °F 93% 30.63 in 0.6 mi WNW 3.5 mph - N/A Fog Fog
5:20 AM 33.8 °F 29.6 °F 33.8 °F 100% 30.63 in 0.3 mi WSW 4.6 mph - N/A Fog Fog
5:50 AM 37.4 °F 34.9 °F 35.6 °F 93% 30.63 in 0.5 mi West 3.5 mph - N/A Fog Shallow Fog
6:20 AM 33.8 °F - 33.8 °F 100% 30.63 in 0.5 mi WSW 2.3 mph - N/A Fog Shallow Fog
6:50 AM 37.4 °F - 35.6 °F 93% 30.63 in 5.0 mi West 2.3 mph - N/A Fog Patches of Fog
7:20 AM 37.4 °F - 35.6 °F 93% 30.63 in 2.8 mi Variable 2.3 mph - N/A   Mist
7:50 AM 41.0 °F - 41.0 °F 100% 30.63 in - Calm Calm - N/A   Clear
8:20 AM 42.8 °F 41.1 °F 42.8 °F 100% 30.63 in - NE 3.5 mph - N/A   Clear
8:50 AM 46.4 °F - 42.8 °F 87% 30.63 in - Variable 2.3 mph - N/A   Clear
9:20 AM 48.2 °F - 42.8 °F 82% 30.63 in - Variable 2.3 mph - N/A   Clear
9:50 AM 50.0 °F - 44.6 °F 82% 30.60 in - Variable 2.3 mph - N/A   Clear
10:20 AM 51.8 °F - 44.6 °F 76% 30.60 in - Variable 3.5 mph - N/A   Clear
10:50 AM 53.6 °F - 44.6 °F 72% 30.60 in 6.2 mi West 4.6 mph - N/A   Partly Cloudy
11:20 AM 57.2 °F - 44.6 °F 63% 30.60 in 6.2 mi Variable 2.3 mph - N/A   Partly Cloudy
11:50 AM 55.4 °F - 42.8 °F 63% 30.57 in 6.2 mi NW 4.6 mph - N/A   Scattered Clouds
12:20 PM 57.2 °F - 42.8 °F 59% 30.57 in 6.2 mi NW 6.9 mph - N/A   Scattered Clouds
12:50 PM 57.2 °F - 42.8 °F 59% 30.57 in 6.2 mi NW 9.2 mph - N/A   Scattered Clouds
1:20 PM 59.0 °F - 42.8 °F 55% 30.54 in 6.2 mi NW 9.2 mph - N/A   Scattered Clouds
1:50 PM 57.2 °F - 42.8 °F 59% 30.54 in 6.2 mi NW 9.2 mph - N/A   Scattered Clouds
2:20 PM 57.2 °F - 41.0 °F 55% 30.51 in 6.2 mi NW 10.4 mph - N/A   Partly Cloudy
2:50 PM 57.2 °F - 41.0 °F 55% 30.51 in 6.2 mi WNW 10.4 mph - N/A   Partly Cloudy
3:20 PM 57.2 °F - 41.0 °F 55% 30.48 in 6.2 mi NW 11.5 mph - N/A   Partly Cloudy
3:50 PM 57.2 °F - 41.0 °F 55% 30.48 in 6.2 mi NW 11.5 mph - N/A   Partly Cloudy
4:20 PM 57.2 °F - 41.0 °F 55% 30.48 in - NW 11.5 mph - N/A   Clear
4:50 PM 55.4 °F - 41.0 °F 58% 30.45 in - NW 10.4 mph - N/A   Clear
5:20 PM 55.4 °F - 41.0 °F 58% 30.45 in - WNW 8.1 mph - N/A   Clear
5:50 PM 53.6 °F - 41.0 °F 62% 30.45 in - NW 8.1 mph - N/A   Clear
6:20 PM 51.8 °F - 41.0 °F 67% 30.45 in - WNW 5.8 mph - N/A   Clear
6:50 PM 48.2 °F - 41.0 °F 76% 30.45 in - WNW 6.9 mph - N/A   Clear
7:20 PM 46.4 °F 43.5 °F 39.2 °F 76% 30.45 in - West 5.8 mph - N/A   Clear
7:50 PM 42.8 °F 38.6 °F 37.4 °F 81% 30.45 in - WSW 6.9 mph - N/A   Clear
8:20 PM 41.0 °F 37.1 °F 35.6 °F 81% 30.45 in - WSW 5.8 mph - N/A   Clear
8:50 PM 41.0 °F 35.8 °F 39.2 °F 93% 30.42 in - West 8.1 mph - N/A   Clear
9:20 PM 41.0 °F 38.0 °F 37.4 °F 87% 30.42 in - West 4.6 mph - N/A   Clear
9:50 PM 39.2 °F 34.2 °F 35.6 °F 87% 30.42 in - SW 6.9 mph - N/A   Clear
10:20 PM 37.4 °F 33.8 °F 33.8 °F 87% 30.39 in - WSW 4.6 mph - N/A   Clear
10:50 PM 39.2 °F - 35.6 °F 87% 30.39 in - West 2.3 mph - N/A   Clear
11:20 PM 37.4 °F 32.1 °F 33.8 °F 87% 30.39 in - SW 6.9 mph - N/A   Clear
11:50 PM 35.6 °F 31.7 °F 33.8 °F 93% 30.39 in - WSW 4.6 mph - N/A   Clear